Hourly Weather a/p Chisinau International Airport

Today, 31 October, Saturday

Time Temperature Precipitation Wind Pressure Humidity
00:00 +10°C° 0 mm 4 mps 759 mmHg 75%
01:00 +10°C° 0 mm 4 mps 759 mmHg 76%
02:00 +8°C° 0 mm 4 mps 760 mmHg 78%
03:00 +9°C° 0 mm 3 mps 759 mmHg 79%
04:00 +8°C° 0 mm 3 mps 759 mmHg 80%
05:00 +8°C° 0 mm 3 mps 759 mmHg 81%
06:00 +8°C° 0 mm 3 mps 759 mmHg 78%
07:00 +8°C° 0 mm 3 mps 759 mmHg 76%
08:00 +8°C° 0 mm 3 mps 759 mmHg 74%
09:00 +8°C° 0 mm 4 mps 759 mmHg 68%
10:00 +10°C° 0 mm 4 mps 759 mmHg 63%
11:00 +12°C° 0 mm 5 mps 759 mmHg 57%
12:00 +12°C° 0 mm 5 mps 759 mmHg 55%
13:00 +12°C° 0 mm 5 mps 759 mmHg 53%
14:00 +11°C° 0 mm 6 mps 758 mmHg 50%
15:00 +12°C° 0 mm 5 mps 758 mmHg 54%
16:00 +10°C° 0 mm 5 mps 758 mmHg 57%
17:00 +9°C° 0 mm 5 mps 758 mmHg 60%
18:00 +9°C° 0 mm 6 mps 758 mmHg 63%
19:00 +9°C° 0 mm 6 mps 759 mmHg 66%
20:00 +9°C° 0 mm 7 mps 759 mmHg 70%
21:00 +8°C° 0.1 mm 7 mps 759 mmHg 69%
22:00 +8°C° 0.1 mm 7 mps 758 mmHg 68%
23:00 +8°C° 0.1 mm 7 mps 758 mmHg 68%

Tomorrow, 1 November, Sunday

Time Temperature Precipitation Wind Pressure Humidity
00:00 +8°C° 0 mm 7 mps 758 mmHg 69%
01:00 +8°C° 0 mm 7 mps 758 mmHg 70%
02:00 +8°C° 0 mm 7 mps 758 mmHg 71%
03:00 +7°C° 0.1 mm 8 mps 758 mmHg 73%
04:00 +6°C° 0.1 mm 8 mps 757 mmHg 75%
05:00 +6°C° 0.1 mm 9 mps 757 mmHg 77%
06:00 +7°C° 0.3 mm 9 mps 757 mmHg 79%
07:00 +7°C° 0.3 mm 9 mps 757 mmHg 80%
08:00 +7°C° 0.3 mm 9 mps 758 mmHg 82%
09:00 +7°C° 0.3 mm 9 mps 758 mmHg 82%
10:00 +7°C° 0.3 mm 9 mps 758 mmHg 81%
11:00 +7°C° 0.3 mm 9 mps 758 mmHg 81%
12:00 +7°C° 0.1 mm 9 mps 758 mmHg 80%
13:00 +8°C° 0.1 mm 9 mps 757 mmHg 79%
14:00 +8°C° 0.1 mm 9 mps 757 mmHg 78%
15:00 +9°C° 0 mm 8 mps 757 mmHg 76%
16:00 +9°C° 0 mm 8 mps 757 mmHg 74%
17:00 +9°C° 0 mm 7 mps 757 mmHg 71%
18:00 +9°C° 0.1 mm 7 mps 757 mmHg 73%
19:00 +9°C° 0.1 mm 7 mps 757 mmHg 74%
20:00 +9°C° 0.1 mm 7 mps 757 mmHg 75%
21:00 +9°C° 0 mm 7 mps 758 mmHg 75%
22:00 +9°C° 0 mm 7 mps 758 mmHg 75%
23:00 +9°C° 0 mm 7 mps 758 mmHg 76%

Day after tomorrow, 2 November, Monday

Time Temperature Precipitation Wind Pressure Humidity
00:00 +8°C° 0.1 mm 7 mps 758 mmHg 76%
01:00 +8°C° 0.1 mm 7 mps 758 mmHg 77%
02:00 +8°C° 0.1 mm 7 mps 758 mmHg 77%
03:00 +8°C° 0 mm 6 mps 758 mmHg 78%
04:00 +8°C° 0 mm 6 mps 759 mmHg 79%
05:00 +8°C° 0 mm 5 mps 759 mmHg 79%
06:00 +8°C° 0 mm 5 mps 759 mmHg 80%
07:00 +7°C° 0 mm 5 mps 760 mmHg 80%
08:00 +7°C° 0 mm 5 mps 760 mmHg 81%
09:00 +10°C° 0 mm 4 mps 760 mmHg 76%
10:00 +11°C° 0 mm 4 mps 761 mmHg 72%
11:00 +12°C° 0 mm 4 mps 761 mmHg 68%
12:00 +12°C° 0 mm 4 mps 761 mmHg 65%
13:00 +13°C° 0 mm 3 mps 760 mmHg 62%
14:00 +13°C° 0 mm 3 mps 760 mmHg 59%
15:00 +13°C° 0 mm 3 mps 760 mmHg 62%
16:00 +13°C° 0 mm 2 mps 761 mmHg 65%
17:00 +12°C° 0 mm 2 mps 761 mmHg 67%
18:00 +12°C° 0 mm 2 mps 761 mmHg 68%
19:00 +11°C° 0 mm 1 mps 761 mmHg 68%
20:00 +10°C° 0 mm 1 mps 762 mmHg 69%
21:00 +10°C° 0 mm 1 mps 762 mmHg 68%
22:00 +10°C° 0 mm 1 mps 762 mmHg 68%
23:00 +8°C° 0 mm 0 mps 762 mmHg 67%

3 November, Tuesday

Time Temperature Precipitation Wind Pressure Humidity
00:00 +8°C° 0 mm 0 mps 762 mmHg 67%
01:00 +8°C° 0 mm 0 mps 762 mmHg 66%
02:00 +8°C° 0 mm 0 mps 762 mmHg 66%
03:00 +8°C° 0 mm 0 mps 762 mmHg 65%
04:00 +8°C° 0 mm 0 mps 762 mmHg 65%
05:00 +8°C° 0 mm 0 mps 762 mmHg 65%
06:00 +9°C° 0 mm 1 mps 762 mmHg 64%
07:00 +10°C° 0 mm 1 mps 762 mmHg 62%
08:00 +10°C° 0 mm 1 mps 762 mmHg 61%
09:00 +10°C° 0 mm 1 mps 762 mmHg 60%
10:00 +11°C° 0 mm 1 mps 762 mmHg 59%
11:00 +11°C° 0 mm 1 mps 763 mmHg 58%
12:00 +12°C° 0 mm 1 mps 763 mmHg 57%
13:00 +12°C° 0 mm 1 mps 763 mmHg 56%
14:00 +13°C° 0 mm 1 mps 762 mmHg 55%
15:00 +12°C° 0 mm 1 mps 762 mmHg 56%
16:00 +11°C° 0 mm 0 mps 762 mmHg 58%
17:00 +11°C° 0 mm 0 mps 762 mmHg 60%
18:00 +11°C° 0 mm 0 mps 763 mmHg 61%
19:00 +11°C° 0 mm 0 mps 763 mmHg 61%
20:00 +11°C° 0 mm 0 mps 763 mmHg 62%
21:00 +11°C° 0 mm 0 mps 763 mmHg 62%
22:00 +11°C° 0 mm 0 mps 763 mmHg 63%
23:00 +11°C° 0 mm 0 mps 763 mmHg 63%

4 November, Wednesday

Time Temperature Precipitation Wind Pressure Humidity
00:00 +11°C° 0 mm 0 mps 763 mmHg 64%
01:00 +11°C° 0 mm 0 mps 763 mmHg 65%
02:00 +11°C° 0 mm 0 mps 763 mmHg 65%
03:00 +10°C° 0 mm 0 mps 763 mmHg 67%
04:00 +10°C° 0 mm 0 mps 763 mmHg 68%
05:00 +10°C° 0 mm 0 mps 763 mmHg 69%
06:00 +10°C° 0 mm 0 mps 763 mmHg 69%
07:00 +11°C° 0 mm 1 mps 764 mmHg 69%
08:00 +11°C° 0 mm 1 mps 764 mmHg 69%
09:00 +12°C° 0 mm 1 mps 764 mmHg 65%
10:00 +13°C° 0 mm 1 mps 764 mmHg 61%
11:00 +14°C° 0 mm 2 mps 764 mmHg 57%
12:00 +15°C° 0 mm 2 mps 765 mmHg 56%
13:00 +16°C° 0 mm 2 mps 765 mmHg 55%
14:00 +16°C° 0 mm 2 mps 765 mmHg 53%
15:00 +15°C° 0 mm 2 mps 765 mmHg 56%
16:00 +15°C° 0 mm 2 mps 765 mmHg 60%
17:00 +14°C° 0 mm 2 mps 765 mmHg 63%
18:00 +13°C° 0 mm 2 mps 765 mmHg 66%
19:00 +13°C° 0 mm 2 mps 766 mmHg 68%
20:00 +12°C° 0 mm 2 mps 766 mmHg 71%
21:00 +12°C° 0 mm 1 mps 767 mmHg 72%
22:00 +11°C° 0 mm 1 mps 767 mmHg 73%
23:00 +10°C° 0 mm 0 mps 767 mmHg 74%

5 November, Thursday

Time Temperature Precipitation Wind Pressure Humidity
00:00 +9°C° 0 mm 0 mps 767 mmHg 75%
01:00 +9°C° 0 mm 0 mps 767 mmHg 76%
02:00 +9°C° 0 mm 0 mps 768 mmHg 77%
03:00 +9°C° 0 mm 0 mps 768 mmHg 78%
04:00 +8°C° 0 mm 0 mps 768 mmHg 79%
05:00 +8°C° 0 mm 0 mps 768 mmHg 81%
06:00 +9°C° 0 mm 0 mps 769 mmHg 80%
07:00 +9°C° 0 mm 0 mps 769 mmHg 79%
08:00 +9°C° 0 mm 0 mps 769 mmHg 78%
09:00 +10°C° 0 mm 0 mps 769 mmHg 73%
10:00 +13°C° 0 mm 1 mps 769 mmHg 67%
11:00 +14°C° 0 mm 1 mps 769 mmHg 62%
12:00 +14°C° 0 mm 1 mps 769 mmHg 60%
13:00 +15°C° 0 mm 1 mps 769 mmHg 58%
14:00 +14°C° 0 mm 0 mps 769 mmHg 56%
15:00 +14°C° 0 mm 0 mps 769 mmHg 59%
16:00 +13°C° 0 mm 0 mps 768 mmHg 62%
17:00 +13°C° 0 mm 1 mps 768 mmHg 64%
18:00 +12°C° 0 mm 0 mps 768 mmHg 65%
19:00 +12°C° 0 mm 0 mps 768 mmHg 65%
20:00 +12°C° 0 mm 0 mps 768 mmHg 66%
21:00 +12°C° 0 mm 0 mps 768 mmHg 66%
22:00 +12°C° 0 mm 0 mps 768 mmHg 65%
23:00 +12°C° 0 mm 0 mps 768 mmHg 65%
Show more

We Need Your Consent

Meteoprog and our Service Providers may store and access personal data such as cookies, device identifiers or other similar technologies on your device and process such data to personalise content and ads, as well as provide social media features and to analyse the traffic.

  • Store and/or access information on your device

    Cookies, device identifiers or other information can be stored or accessed on your device for the purposes indicated above.

  • Personalised ads and content, ad and content measurement, audience insights, and products development

    Ads and content can be personalised based on a profile. More data can be added to better personalise ads and content. Ad and content performance can be measured. Insights about the audience who saw the ads and content can be derived. Such data can be used to develop or improve user’s experience, systems and software.

By clicking ‘I Agree’ you will allow the use of indicated cookies, device identifiers, web beacons or other similar technologies. Your settings can be changed in the browser on your device.

For certain purposes, legitimate interests may be relied on, rather than consent. You can read more about this in our Privacy and Cookie Policy.